Weather History for Chattanooga, TN

Change the Weather History Date:

Monday, February 10, 2014

  Actual Average Record
Temperature  
Mean Temperature 40 °F 43 °F  
Max Temperature 44 °F 54 °F 77 °F (1932)
Min Temperature 35 °F 33 °F 1 °F (1899)
Degree Days  
Heating Degree Days 25 22  
Month to date heating degree days 242 226  
Since 1 July heating degree days 2453 2271  
Cooling Degree Days 0 0  
Month to date cooling degree days 0 0  
Year to date cooling degree days 0 0  
Moisture  
Dew Point 30 °F    
Average Humidity 65    
Maximum Humidity 79    
Minimum Humidity 51    
Precipitation  
Precipitation T in 0.17 in 2.54 in (1994)
Month to date precipitation 2.78 1.71  
Year to date precipitation 5.18 6.62  
Snow  
Snow T in 0.00 in - ()
Month to date snowfall T 0.2  
Since 1 July snowfall 1.2 2.2  
Snow Depth 0.00 in    
Sea Level Pressure  
Sea Level Pressure 30.17 in    
Wind  
Wind Speed 11 mph (NNE)    
Max Wind Speed 20 mph    
Max Gust Speed 24 mph    
Visibility 8 miles    
Events Rain , Snow    
T = Trace of Precipitation, MM = Missing Value Source: NWS Daily Summary

Daily Weather History Graph

Daily Weather History Graph

Search for Another Location

Airport:

Trip Planner

Search our weather history database for the weather conditions in past years. The results will help you decide how hot, cold, wet, or windy it might be!

Date:

Astronomy

Feb. 10, 2014 Rise Set
Actual Time 7:31 AM EST 6:18 PM EST
Civil Twilight 7:05 AM EST 6:44 PM EST
Nautical Twilight 6:35 AM EST 7:14 PM EST
Astronomical Twilight 6:06 AM EST 7:44 PM EST
Moon 2:50 PM EST (2/10) 4:20 AM EST (2/10)
Length of Visible Light 11h 39m
Length of Day
10h 46m
Waxing Gibbous, 84% of the Moon is Illuminated
Feb 10
Waxing Gibbous
Feb 14
Full
Feb 22
Last Quarter
Mar 1
New
Mar 8
First Quarter

Hourly Weather History & Observations

Time (EST) Temp. Windchill Dew Point Humidity Pressure Visibility Wind Dir Wind Speed Gust Speed Precip Events Conditions
12:53 AM 42.1 °F 37.1 °F 35.1 °F 76% 30.12 in 10.0 mi North 8.1 mph - N/A   Overcast
1:53 AM 42.1 °F 35.7 °F 35.1 °F 76% 30.14 in 10.0 mi North 11.5 mph - N/A   Overcast
2:53 AM 41.0 °F 35.2 °F 34.0 °F 76% 30.13 in 10.0 mi NNE 9.2 mph - N/A   Overcast
3:53 AM 39.9 °F 34.5 °F 34.0 °F 79% 30.11 in 10.0 mi NNE 8.1 mph - N/A   Overcast
4:53 AM 39.9 °F 33.9 °F 33.1 °F 77% 30.12 in 10.0 mi North 9.2 mph - N/A   Overcast
5:08 AM 39.0 °F 31.8 °F 33.1 °F 79% 30.11 in 10.0 mi NNE 11.5 mph - N/A   Overcast
5:24 AM 39.0 °F 32.3 °F 33.1 °F 79% 30.11 in 10.0 mi NNE 10.4 mph - N/A   Overcast
5:35 AM 39.0 °F 31.4 °F 33.1 °F 79% 30.12 in 10.0 mi North 12.7 mph - N/A   Overcast
5:53 AM 39.0 °F 32.3 °F 33.1 °F 79% 30.12 in 7.0 mi NNE 10.4 mph - N/A   Overcast
6:53 AM 37.9 °F 30.9 °F 30.9 °F 76% 30.14 in 7.0 mi North 10.4 mph - N/A   Overcast
7:53 AM 37.9 °F 30.5 °F 30.9 °F 76% 30.16 in 7.0 mi North 11.5 mph - N/A   Overcast
8:53 AM 37.9 °F 30.0 °F 30.0 °F 73% 30.18 in 7.0 mi North 12.7 mph - N/A   Overcast
9:53 AM 37.0 °F 29.8 °F 32.0 °F 82% 30.21 in 5.0 mi North 10.4 mph - 0.00 in   Light Drizzle
10:53 AM 37.0 °F 29.8 °F 32.0 °F 82% 30.22 in 4.0 mi NNE 10.4 mph - 0.00 in Rain Light Rain
11:12 AM 36.0 °F 27.5 °F 30.9 °F 82% 30.21 in 2.0 mi NNE 12.7 mph - 0.00 in Snow Light Snow
11:47 AM 35.6 °F 28.0 °F 32.0 °F 87% 30.21 in 1.5 mi North 10.4 mph - 0.00 in Snow Light Snow
11:53 AM 36.0 °F 28.5 °F 32.0 °F 86% 30.22 in 2.0 mi North 10.4 mph - 0.00 in Snow Light Snow
12:18 PM 36.0 °F 28.0 °F 32.0 °F 86% 30.20 in 2.5 mi North 11.5 mph - 0.00 in Snow Light Snow
12:35 PM 36.0 °F 29.0 °F 32.0 °F 86% 30.20 in 4.0 mi North 9.2 mph - 0.00 in   Overcast
12:53 PM 37.0 °F 29.3 °F 30.9 °F 79% 30.19 in 7.0 mi North 11.5 mph - 0.00 in   Overcast
1:53 PM 41.0 °F 35.2 °F 32.0 °F 70% 30.17 in 10.0 mi North 9.2 mph - N/A   Overcast
2:53 PM 42.1 °F 34.9 °F 28.0 °F 58% 30.14 in 10.0 mi NNE 13.8 mph - N/A   Mostly Cloudy
3:53 PM 43.0 °F 35.1 °F 26.1 °F 51% 30.15 in 10.0 mi North 17.3 mph - N/A   Mostly Cloudy
4:53 PM 43.0 °F 36.0 °F 26.1 °F 51% 30.16 in 10.0 mi NNE 13.8 mph - N/A   Mostly Cloudy
5:53 PM 41.0 °F 33.5 °F 24.1 °F 51% 30.18 in 10.0 mi NNE 13.8 mph - N/A   Mostly Cloudy
6:53 PM 39.9 °F 34.5 °F 25.0 °F 55% 30.21 in 10.0 mi NNE 8.1 mph - N/A   Mostly Cloudy
7:53 PM 37.0 °F 29.8 °F 26.1 °F 65% 30.21 in 10.0 mi North 10.4 mph - N/A   Mostly Cloudy
8:53 PM 36.0 °F 29.0 °F 25.0 °F 64% 30.22 in 10.0 mi North 9.2 mph - N/A   Mostly Cloudy
9:53 PM 36.0 °F 28.0 °F 21.9 °F 57% 30.23 in 10.0 mi North 11.5 mph - N/A   Mostly Cloudy
10:53 PM 36.0 °F 29.6 °F 21.0 °F 55% 30.23 in 10.0 mi NNE 8.1 mph - N/A   Mostly Cloudy
11:53 PM 35.1 °F 26.9 °F 21.0 °F 57% 30.23 in 10.0 mi NNE 11.5 mph - N/A   Overcast